Location: Dumpton Point
(51.3500°N, 1.4433°E)
Time: 10:49:42
(UTC+00:00)

STARLINK-1212 - Pass Details

Date: 09 April 2020
Orbit: 377 x 382 km, 53.0° (Epoch: 28 May)

Event Time Altitude Azimuth Distance (km) Brightness Sun altitude
Rises 19:44:02 0° 288° (WNW) 2,268 8.9 -10.0°
Reaches altitude 10° 19:46:09 10° 280° (W) 1,411 7.1 -10.3°
Maximum altitude 19:49:08 40° 210° (SSW) 588 3.8 -10.7°
Enters shadow 19:51:21 16° 145° (SE) 1,122 4.7 -11.0°
